Weather History for KBPK - April, 2014

Change the Weather History Date:

Saturday, April 26, 2014

  Actual Average (KHRO) Record (KHRO)
Temperature  
Mean Temperature 66 °F 61 °F  
Max Temperature 82 °F 72 °F 92 °F (1927)
Min Temperature 52 °F 50 °F 26 °F (1910)
Degree Days  
Heating Degree Days 0 5  
Month to date heating degree days 221  
Since 1 July heating degree days 3901  
Cooling Degree Days 2 1  
Month to date cooling degree days 26  
Year to date cooling degree days 32  
Growing Degree Days 16 (Base 50)    
Moisture  
Dew Point 44 °F    
Average Humidity 46    
Maximum Humidity 69    
Minimum Humidity 26    
Precipitation  
Precipitation 0.00 in 0.16 in 1.60 in (1967)
Month to date precipitation 3.66  
Year to date precipitation 12.65  
Snow  
Snow 0.00 in 0.00 in - ()
Month to date snowfall 0.3  
Since 1 July snowfall 11.5  
Snow Depth -    
Sea Level Pressure  
Sea Level Pressure 29.84 in    
Wind  
Wind Speed 5 mph (SE)    
Max Wind Speed 12 mph    
Max Gust Speed 18 mph    
Visibility 10 miles    
Events      
T = Trace of Precipitation, MM = Missing Value Source: NWS Daily Summary

Daily Weather History Graph

Daily Weather History Graph

Search for Another Location

Airport or City:

Trip Planner

Search our weather history database for the weather conditions in past years. The results will help you decide how hot, cold, wet, or windy it might be!

Date:

Astronomy

Apr. 26, 2014 Rise Set
Actual Time 6:22 AM CDT 7:53 PM CDT
Civil Twilight 5:55 AM CDT 8:20 PM CDT
Nautical Twilight 5:22 AM CDT 8:53 PM CDT
Astronomical Twilight 4:48 AM CDT 9:28 PM CDT
Moon 4:41 AM CDT (4/26) 5:26 PM CDT (4/26)
Length of Visible Light 14h 25m
Length of Day
13h 31m
Waning Crescent, 8% of the Moon is Illuminated
Apr 26
Waning Crescent
Apr 29
New
May 6
First Quarter
May 14
Full
May 21
Last Quarter

Hourly Weather History & Observations

Time (CDT) Temp. Dew Point Humidity Pressure Visibility Wind Dir Wind Speed Gust Speed Precip Events Conditions
12:53 AM 60.1 °F 39.0 °F 46% 29.91 in 10.0 mi SSE 3.5 mph - N/A   Clear
1:53 AM 57.9 °F 39.0 °F 49% 29.88 in 10.0 mi South 5.8 mph - N/A   Clear
2:53 AM 57.9 °F 41.0 °F 53% 29.87 in 10.0 mi South 5.8 mph - N/A   Clear
3:53 AM 52.0 °F 42.1 °F 69% 29.87 in 10.0 mi Calm Calm - N/A   Clear
4:53 AM 52.0 °F 41.0 °F 66% 29.88 in 10.0 mi ENE 3.5 mph - N/A   Clear
5:53 AM 54.0 °F 41.0 °F 62% 29.88 in 10.0 mi ENE 3.5 mph - N/A   Clear
6:53 AM 54.0 °F 43.0 °F 66% 29.91 in 10.0 mi Calm Calm - N/A   Clear
7:53 AM 57.9 °F 44.1 °F 60% 29.92 in 10.0 mi ESE 4.6 mph - N/A   Clear
8:53 AM 62.1 °F 44.1 °F 52% 29.91 in 10.0 mi SSE 5.8 mph - N/A   Clear
9:53 AM 62.1 °F 45.0 °F 53% 29.92 in 10.0 mi SE 3.5 mph - N/A   Clear
10:53 AM 63.0 °F 46.0 °F 54% 29.91 in 10.0 mi ESE 6.9 mph - 0.00 in   Mostly Cloudy
11:53 AM 70.0 °F 45.0 °F 41% 29.90 in 10.0 mi Variable 5.8 mph - N/A   Clear
12:53 PM 75.9 °F 45.0 °F 33% 29.88 in 10.0 mi South 6.9 mph 16.1 mph N/A   Clear
1:53 PM 79.0 °F 45.0 °F 30% 29.86 in 10.0 mi South 8.1 mph - N/A   Clear
2:53 PM 79.0 °F 43.0 °F 28% 29.83 in 10.0 mi South 11.5 mph 17.3 mph N/A   Clear
3:53 PM 81.0 °F 43.0 °F 26% 29.80 in 10.0 mi SSE 11.5 mph 17.3 mph N/A   Clear
4:53 PM 81.0 °F 43.0 °F 26% 29.78 in 10.0 mi SE 11.5 mph 18.4 mph N/A   Clear
5:53 PM 80.1 °F 44.1 °F 28% 29.75 in 10.0 mi SSE 9.2 mph - N/A   Clear
6:53 PM 77.0 °F 45.0 °F 32% 29.74 in 10.0 mi SE 8.1 mph - N/A   Clear
7:53 PM 73.0 °F 46.0 °F 38% 29.75 in 10.0 mi SSE 6.9 mph - N/A   Clear
8:53 PM 71.1 °F 48.0 °F 44% 29.75 in 10.0 mi SSE 5.8 mph - N/A   Clear
9:53 PM 70.0 °F 48.9 °F 47% 29.75 in 10.0 mi SSE 9.2 mph - N/A   Clear
10:53 PM 69.1 °F 50.0 °F 51% 29.73 in 10.0 mi SSE 9.2 mph - N/A   Clear
11:53 PM 68.0 °F 51.1 °F 55% 29.72 in 10.0 mi SE 5.8 mph - N/A   Clear